Weather History for KJKA - May, 2013

Change the Weather History Date:

Wednesday, May 15, 2013

  Actual Average (KPNS) Record (KPNS)
Temperature  
Mean Temperature 66 °F 74 °F  
Max Temperature 78 °F 83 °F 94 °F (1998)
Min Temperature 53 °F 66 °F 52 °F (1882)
Cooling Degree Days 0 9  
Month to date cooling degree days 114  
Year to date cooling degree days 262  
Growing Degree Days 16 (Base 50)    
Moisture  
Dew Point 55 °F    
Average Humidity 66    
Maximum Humidity 94    
Minimum Humidity 32    
Precipitation  
Precipitation 0.00 in 0.13 in 1.44 in (1942)
Month to date precipitation 1.97  
Year to date precipitation 21.79  
Sea Level Pressure  
Sea Level Pressure 30.16 in    
Wind  
Wind Speed 3 mph (SSE)    
Max Wind Speed 13 mph    
Max Gust Speed 16 mph    
Visibility 9 miles    
Events Fog    
T = Trace of Precipitation, MM = Missing Value Source: NWS Daily Summary

Daily Weather History Graph

Daily Weather History Graph

Search for Another Location

Airport or City:

Trip Planner

Search our weather history database for the weather conditions in past years. The results will help you decide how hot, cold, wet, or windy it might be!

Date:

Astronomy

May. 15, 2013 Rise Set
Actual Time 5:56 AM CDT 7:37 PM CDT
Civil Twilight 5:30 AM CDT 8:04 PM CDT
Nautical Twilight 4:58 AM CDT 8:35 PM CDT
Astronomical Twilight 4:25 AM CDT 9:09 PM CDT
Moon 10:28 AM CDT (5/15) No Moon Set
Length of Visible Light 14h 33m
Length of Day
13h 41m
Waxing Crescent, 27% of the Moon is Illuminated
May 15
Waxing Crescent
May 17
First Quarter
May 24
Full
May 31
Last Quarter
Jun 8
New

Hourly Weather History & Observations

Time (CDT) Temp. Dew Point Humidity Pressure Visibility Wind Dir Wind Speed Gust Speed Precip Events Conditions
12:15 AM 60.8 °F 55.4 °F 82% 30.20 in 10.0 mi Calm Calm - N/A   Unknown
12:35 AM 59.0 °F 55.4 °F 88% 30.20 in 7.0 mi Calm Calm - N/A   Unknown
12:55 AM 59.0 °F 55.4 °F 88% 30.19 in 10.0 mi Calm Calm - N/A   Unknown
1:15 AM 59.0 °F 55.4 °F 88% 30.19 in 5.0 mi Calm Calm - N/A   Mist
1:35 AM 59.0 °F 55.4 °F 88% 30.19 in 5.0 mi Calm Calm - N/A   Mist
1:55 AM 57.2 °F 53.6 °F 88% 30.19 in 1.0 mi Calm Calm - N/A   Mist
2:15 AM 55.4 °F 53.6 °F 94% 30.18 in 4.0 mi Calm Calm - N/A   Mist
2:35 AM 55.4 °F 53.6 °F 94% 30.18 in 5.0 mi Calm Calm - N/A   Mist
2:55 AM 55.4 °F 53.6 °F 94% 30.18 in 3.0 mi Calm Calm - N/A   Mist
3:15 AM 55.4 °F 53.6 °F 94% 30.18 in 10.0 mi Calm Calm - N/A   Unknown
3:35 AM 55.4 °F 53.6 °F 94% 30.19 in 10.0 mi Calm Calm - N/A   Unknown
3:55 AM 55.4 °F 53.6 °F 94% 30.19 in 10.0 mi Calm Calm - N/A   Unknown
4:15 AM 55.4 °F 51.8 °F 88% 30.20 in 3.0 mi Calm Calm - N/A   Mist
4:35 AM 53.6 °F 51.8 °F 94% 30.20 in 0.8 mi Calm Calm - N/A   Mist
4:55 AM 55.4 °F 53.6 °F 94% 30.20 in 4.0 mi East 3.5 mph - N/A   Mist
5:15 AM 55.4 °F 53.6 °F 94% 30.20 in 3.0 mi Calm Calm - N/A   Mist
5:35 AM 55.4 °F 53.6 °F 94% 30.21 in 4.0 mi Calm Calm - N/A   Mist
5:55 AM 55.4 °F 53.6 °F 94% 30.22 in 2.0 mi Calm Calm - N/A   Mist
6:15 AM 55.4 °F 53.6 °F 94% 30.22 in 0.2 mi Calm Calm - N/A Fog Fog
6:35 AM 55.4 °F 53.6 °F 94% 30.23 in 10.0 mi North - - N/A   Unknown
6:55 AM 59.0 °F 55.4 °F 88% 30.22 in 10.0 mi North - - N/A   Unknown
7:15 AM 62.6 °F 60.8 °F 94% 30.23 in 10.0 mi Calm Calm - N/A   Unknown
7:35 AM 64.4 °F 60.8 °F 88% 30.23 in 10.0 mi Calm Calm - N/A   Unknown
8:15 AM 71.6 °F 62.6 °F 73% 30.23 in 10.0 mi Calm Calm - N/A   Unknown
8:35 AM 71.6 °F 60.8 °F 69% 30.23 in 10.0 mi Calm Calm - N/A   Unknown
8:55 AM 71.6 °F 60.8 °F 69% 30.24 in 10.0 mi NNW 3.5 mph - N/A   Unknown
9:15 AM 73.4 °F 60.8 °F 65% 30.23 in 10.0 mi Calm Calm - N/A   Unknown
9:35 AM 73.4 °F 59.0 °F 61% 30.23 in 10.0 mi West 3.5 mph - N/A   Unknown
9:55 AM 75.2 °F 59.0 °F 57% 30.23 in 10.0 mi Calm Calm - N/A   Unknown
10:15 AM 77.0 °F 59.0 °F 54% 30.23 in 10.0 mi WNW 3.5 mph - N/A   Unknown
10:35 AM 77.0 °F 57.2 °F 50% 30.23 in 10.0 mi North 4.6 mph - N/A   Unknown
10:55 AM 78.8 °F 55.4 °F 44% 30.22 in 10.0 mi NNW 3.5 mph - N/A   Unknown
11:15 AM 78.8 °F 53.6 °F 42% 30.22 in 10.0 mi South 3.5 mph - N/A   Unknown
11:35 AM 78.8 °F 60.8 °F 54% 30.21 in 10.0 mi SSE 6.9 mph - N/A   Unknown
11:55 AM 78.8 °F 55.4 °F 44% 30.20 in 10.0 mi South 6.9 mph - N/A   Unknown
12:15 PM 78.8 °F 60.8 °F 54% 30.20 in 10.0 mi South 10.4 mph - N/A   Unknown
12:35 PM 78.8 °F 59.0 °F 51% 30.20 in 10.0 mi South 8.1 mph - N/A   Unknown
12:55 PM 78.8 °F 57.2 °F 47% 30.19 in 10.0 mi South 6.9 mph - N/A   Unknown
1:15 PM 78.8 °F 50.0 °F 36% 30.19 in 10.0 mi SSE 9.2 mph - N/A   Unknown
1:35 PM 78.8 °F 50.0 °F 36% 30.19 in 10.0 mi SSE 8.1 mph - N/A   Unknown
1:55 PM 78.8 °F 51.8 °F 39% 30.18 in 10.0 mi South 10.4 mph - N/A   Unknown
2:15 PM 78.8 °F 46.4 °F 32% 30.17 in 10.0 mi SSE 10.4 mph - N/A   Unknown
2:35 PM 78.8 °F 46.4 °F 32% 30.16 in 10.0 mi South 10.4 mph 16.1 mph N/A   Unknown
2:55 PM 78.8 °F 50.0 °F 36% 30.16 in 10.0 mi SSE 9.2 mph - N/A   Unknown
3:15 PM 77.0 °F 50.0 °F 39% 30.15 in 10.0 mi South 11.5 mph - N/A   Unknown
3:35 PM 77.0 °F 51.8 °F 41% 30.14 in 10.0 mi SSE 12.7 mph - N/A   Unknown
3:55 PM 77.0 °F 50.0 °F 39% 30.13 in 10.0 mi SSE 10.4 mph - N/A   Unknown
4:15 PM 77.0 °F 50.0 °F 39% 30.12 in 10.0 mi SSE 11.5 mph - N/A   Unknown
4:35 PM 77.0 °F 50.0 °F 39% 30.12 in 10.0 mi SSE 10.4 mph - N/A   Unknown
4:55 PM 77.0 °F 50.0 °F 39% 30.12 in 10.0 mi SSE 10.4 mph - N/A   Unknown
5:15 PM 75.2 °F 51.8 °F 44% 30.11 in 10.0 mi North - - N/A   Unknown
5:35 PM 75.2 °F 50.0 °F 41% 30.11 in 10.0 mi North - - N/A   Unknown
5:55 PM 75.2 °F 50.0 °F 41% 30.10 in 10.0 mi SE 6.9 mph - N/A   Unknown
6:15 PM 73.4 °F 51.8 °F 47% 30.10 in 10.0 mi SSE 8.1 mph - N/A   Unknown
6:35 PM 73.4 °F 53.6 °F 50% 30.09 in 10.0 mi SE 8.1 mph - N/A   Unknown
6:55 PM 71.6 °F 53.6 °F 53% 30.09 in 10.0 mi SE 4.6 mph - N/A   Unknown
7:15 PM 71.6 °F 53.6 °F 53% 30.08 in 10.0 mi SE 4.6 mph - N/A   Unknown
7:35 PM 71.6 °F 53.6 °F 53% 30.09 in 10.0 mi SSE 3.5 mph - N/A   Unknown
7:55 PM 69.8 °F 53.6 °F 56% 30.08 in 10.0 mi Calm Calm - N/A   Unknown
8:15 PM 69.8 °F 55.4 °F 60% 30.08 in 10.0 mi Calm Calm - N/A   Unknown
8:35 PM 68.0 °F 55.4 °F 64% 30.08 in 10.0 mi SSE 3.5 mph - N/A   Unknown
8:55 PM 68.0 °F 57.2 °F 68% 30.07 in 10.0 mi SE 3.5 mph - N/A   Unknown
9:15 PM 69.8 °F 59.0 °F 68% 30.08 in 10.0 mi Calm Calm - N/A   Unknown
9:35 PM 69.8 °F 59.0 °F 68% 30.08 in 10.0 mi SE 3.5 mph - N/A   Unknown
9:55 PM 68.0 °F 59.0 °F 73% 30.08 in 10.0 mi SE 3.5 mph - N/A   Unknown
10:15 PM 66.2 °F 59.0 °F 78% 30.08 in 10.0 mi SE 4.6 mph - N/A   Unknown
10:35 PM 64.4 °F 59.0 °F 83% 30.07 in 10.0 mi SE 4.6 mph - N/A   Unknown
10:55 PM 68.0 °F 60.8 °F 78% 30.07 in 10.0 mi SE 4.6 mph - N/A   Unknown
11:15 PM 68.0 °F 60.8 °F 78% 30.07 in 10.0 mi SSE 4.6 mph - N/A   Unknown
11:35 PM 69.8 °F 60.8 °F 73% 30.06 in 10.0 mi SE 6.9 mph - N/A   Unknown
11:55 PM 69.8 °F 62.6 °F 78% 30.06 in 10.0 mi SE 6.9 mph - N/A   Unknown